Regional Weather Roundup
Issued by NWS Upton, NY

Home | Current Version | Previous Version | Text Only | Print | Product List | Glossary On
Versions: 1 2 3 4 5 6 7 8 9 10 11 12 13 14 15 16 17 18 19 20 21 22 23 24 25 26 27 28 29 30 31 32 33 34 35 36 37 38 39 40 41 42 43 44 45 46 47 48 49 50
000
ASUS41 KOKX 172305
RWROKX

REGIONAL WEATHER ROUNDUP
NATIONAL WEATHER SERVICE NEW YORK NY
600 PM EST WED DEC 17 2014

NOTE: "FAIR" INDICATES FEW OR NO CLOUDS BELOW 12,000 FEET WITH NO
SIGNIFICANT WEATHER AND/OR OBSTRUCTIONS TO VISIBILITY.

NYZ071-072-176-178-NJZ106-104-180000-
NEW YORK CITY METRO AREA


CITY           SKY/WX    TMP DP  RH WIND       PRES   REMARKS
CENTRAL PARK   CLOUDY    49  34  56 VRB6G20   29.89R
LAGUARDIA APRT CLOUDY    48  36  63 NW13      29.85R
KENNEDY INTL   CLOUDY    50  34  54 W15G24    29.87R
NEWARK/LIBERTY LGT RAIN  48  34  58 W13G18    29.87R
BRNX BOT. GARD   N/A     46  34  61 NW2       29.88R
TETERBORO      CLOUDY    48  36  63 W10       29.86R
$$

NYZ177-179-078>081-180000-
LONG ISLAND NEW YORK

CITY           SKY/WX    TMP DP  RH WIND       PRES   REMARKS
FARMINGDALE    CLOUDY    49  35  58 NW13G23   29.85R
ISLIP          MOCLDY    46  37  71 W7        29.83R
SHIRLEY        CLOUDY    48  37  65 W14G20    29.84R
WESTHAMPTON    CLOUDY    48  37  65 W9        29.83R
MONTAUK POINT    N/A     49  42  77 W8        29.81R
$$

NYZ052-065-067-180000-
HUDSON VALLEY

CITY           SKY/WX    TMP DP  RH WIND       PRES   REMARKS
WHITE PLAINS   MOCLDY    45  33  63 NW16      29.84R
NEWBURGH       MOCLDY    41  36  81 NW12G23   29.86R
MONTGOMERY     CLOUDY    43  33  68 NW6       29.86R
POUGHKEEPSIE   CLOUDY    45  33  63 W14G20    29.86R
ALBANY         LGT RAIN  38  31  76 W13       29.86R WCI  30
$$

NJZ001-105-106-008-010-013-015-019>022-104-180000-
NEW JERSEY

CITY           SKY/WX    TMP DP  RH WIND       PRES   REMARKS
NEWARK/LIBERTY LGT RAIN  48  34  58 W13G18    29.87R
TETERBORO      CLOUDY    48  36  63 W10       29.86R
CALDWELL       LGT RAIN  46  35  65 W14       29.88R
MORRISTOWN     CLOUDY    48  36  61 NW9G16    29.88R
SOMERVILLE     PTCLDY    46  31  55 W10G22    29.88R
SUSSEX         CLOUDY    44  32  62 W10       29.88R
ANDOVER          N/A     43  34  70 W8        29.88R
TRENTON        CLEAR     44  29  55 W9        29.91R
MILLVILLE      CLEAR     45  30  55 NW14      29.95R
ATLANTIC CITY  PTCLDY    47  32  56 NW18G30   29.92R
WRIGHTSTOWN    CLEAR     45  30  56 W14G22    29.90R
TOMS RIVER     MOCLDY    45  34  65 W8        29.92R
BELMAR         CLOUDY    46  28  49 W15G23    29.89R
$$

PAZ047>061-062-071-180000-
EASTERN PENNSYLVANIA

CITY           SKY/WX    TMP DP  RH WIND       PRES   REMARKS
PHILADELPHIA   MOCLDY    47  29  49 W13       29.96R
ALLENTOWN      CLOUDY    43  28  55 W17G25    29.92R
SCRANTON       CLOUDY    40  30  67 W15G21    29.90R WCI  32
$$

CTZ002-004>006-009-010-012-RIZ004-006-007-MAZ004-011-015-180000-
SOUTHERN NEW ENGLAND
 IN CT

CITY           SKY/WX    TMP DP  RH WIND       PRES   REMARKS
BRADLEY INTL   CLOUDY    46  36  68 NW10      29.79R
HARTFORD       CLOUDY    47  37  68 NW6       29.81R
DANBURY        CLOUDY    44  31  60 W9G22     29.84R
WTRBRY/OXFORD  NOT AVBL
BRIDGEPORT     CLOUDY    48  35  60 NW20G25   29.82R
MERIDEN        LGT RAIN  46  41  82 NW7       29.81R
NEW HAVEN      CLOUDY    51  36  56 NW10G17   29.81R
CHESTER        CLOUDY    46  41  81 NW7       29.80R
GROTON         LGT RAIN  47  40  76 W9        29.79R
WILLIMANTIC    CLOUDY    47  38  71 NW6       29.79R

 IN RI

CITY           SKY/WX    TMP DP  RH WIND       PRES   REMARKS
PROVIDENCE     MOCLDY    48  37  65 NW10G20   29.76R
BLOCK ISLAND   MOCLDY    46  37  71 NW8G16    29.78R
WESTERLY       CLOUDY    47  39  74 W7        29.79R

 IN MA

CITY           SKY/WX    TMP DP  RH WIND       PRES   REMARKS
BOSTON         MOCLDY    47  39  74 W14G21    29.72R
WORCESTER      MOCLDY    41  36  82 W18G28    29.72S
WESTFIELD      CLOUDY    44  34  67 NW8       29.80R
PROVINCETOWN   CLOUDY    46  43  87 W9        29.71R
NANTUCKET      CLEAR     46  40  79 W10       29.73R
$$

ANZ330-335-338-340-345-350-353-355-180000-
COASTAL MARINE OBSERVATIONS


STATION/POSITION TIME  SKY/WX   TEMP    WIND        PRES    VSBY  WAVE
                                AIR SEA DIR/SP/G                  HT/PER
                 (UTC)          (F)     (DEG/KT/KT) (MB)    (MI)  (FT/S)
NY HARB ENTRANCE 2300            48 46  280/ 17/ 23 1011.3          3/ 7
4S FIRE IS       2300               46                N/A           3/ 4
20S FIRE ISLAND  2200            50 50              1010.7          4/ 5
23SW MTP         2300                                 N/A           4/ 7
HUDSON CANYON    2300            52 56  310/ 23/ 27 1010.3          6/ 6
EXECUTION ROCKS  2300            47 42  290/ 16/ 25   N/A
WESTERN LI SOUND 2300            47     300/ 12/ 14   N/A           1
CENTRAL LI SOUND 2200            47 45  290/ 12/ 16   N/A           1
EASTERN LI SOUND NOT AVBL
ROBBINS REEF     2300            49     290/ 16/ 19 1010.0
$$


>>>>>>>>>>>>>>>>>>>>>>>>>>>> KEY <<<<<<<<<<<<<<<<<<<<<<<<<<<
>                                                          <
>     SKY/WX - SKY CONDITION/PRESENT WEATHER               <
>     TMP    - TEMPERATURE IN FAHRENHEIT                   <
>     DP     - DEWPOINT IN FAHRENHEIT                      <
>     RH     - RELATIVE HUMIDITY IN PERCENT                <
>     WIND   - DIRECTION AND SPEED IN MPH                  <
>     PRES   - MEAN SEA LEVEL PRESSURE IN INCHES OF HG     <
>     WCI    - WIND CHILL INDEX                            <
>     VSB    - VISIBILITY IN MILES                         <
>     HX     - HEAT INDEX                                  <
>     TC     - TEMPERATURE IN CELSIUS                      <
>     VRB    - VARIABLE WIND DIRECTION                     <
>                                                          <
>>>>>>>>>>>>>>>>>>>>>>>>>>>> KEY <<<<<<<<<<<<<<<<<<<<<<<<<<<




USA.gov is the U.S. government's official web portal to all federal, state and local government web resources and services.